Regional Weather Roundup
Issued by NWS

Home | Current Version | Previous Version | Text Only | Print | Product List | Glossary Off
Versions: 1 2 3 4 5 6 7 8 9 10 11 12 13 14 15 16 17 18 19 20 21 22 23 24 25 26 27 28 29 30 31 32 33 34 35 36 37 38 39 40 41 42 43 44 45 46 47 48 49 50

000
ASUS43 KTOP 021359
RWRKS

WEATHER ROUNDUP FOR KANSAS
NATIONAL WEATHER SERVICE GOODLAND KS
900 AM CDT THU OCT 02 2014

NOTE:  "FAIR" INDICATES FEW OR NO CLOUDS BELOW 12,000 FEET WITH NO
SIGNIFICANT WEATHER AND/OR OBSTRUCTIONS TO VISIBILITY.

KSZ001>006-013>018-027>032-041>047-021500-
NORTHWEST KANSAS

CITY           SKY/WX    TMP DP  RH WIND       PRES   REMARKS
GOODLAND       MOSUNNY   46  44  93 NW16      30.08R
HAYS           CLOUDY    54  46  76 N20G26    29.90R
HILL CITY      PTSUNNY   54  50  86 NW16      29.97S
RUSSELL        CLOUDY    55  53  93 N18       29.84F
$$

KSZ061>065-074>080-084>089-021500-
SOUTHWEST KANSAS

CITY           SKY/WX    TMP DP  RH WIND       PRES   REMARKS
DODGE CITY     CLOUDY    54  49  83 N24G33    29.93R
GARDEN CITY    CLOUDY    51  48  89 N22       29.98R
GREAT BEND     CLOUDY    57  50  77 N17G26    29.87R
LIBERAL        CLOUDY    52  45  76 NW20G28   29.98R
$$

KSZ066>073-081>083-090>101-021500-
SOUTHEAST KANSAS

CITY           SKY/WX    TMP DP  RH WIND       PRES   REMARKS
CHANUTE        PTSUNNY   71  67  87 SE8       29.72F
COFFEYVILLE    PTSUNNY   73  71  93 S12       29.73F
HUTCHINSON     CLOUDY    62  55  77 N13       29.80S
MEDICINE LODGE   N/A     64  54  69 N17G26    29.82R
NEWTON         CLOUDY    61  54  77 N21G28    29.80R
PARSONS        LGT RAIN  73  71  93 S6        29.75R
WICHITA INTL   RAIN      65  62  90 N25G32    29.76R FOG
WICHITA JABRA  TSTM      65  65 100 N13       29.77R FOG
WICHITA MCCONL LGT RAIN  66  66 100 N13       29.77S
WINFIELD       CLOUDY    71  67  87 S7        29.74R
$$

KSZ007>012-019>026-033>040-048>060-102>105-021500-
NORTHEAST KANSAS

CITY           SKY/WX    TMP DP  RH WIND       PRES   REMARKS
CONCORDIA      LGT RAIN  56  55  97 N14       29.86R
EMPORIA        CLOUDY    71  69  93 S13       29.73F
LAWRENCE       TSTM      66  65  96 SE13      29.74R VSB 3/4
MANHATTAN      LGT RAIN  63  60  90 NW10      29.79R FOG
OLATHE IND     CLOUDY    67  66  97 S7        29.74F
OLATHE EXE     CLOUDY    67  65  93 SE15      29.72F THUNDER
SALINA         PTSUNNY   62  54  74 N18       29.80F
TOPEKA BILLARD CLOUDY    68  67  96 W3        29.73F FOG
TOPEKA FORBES  CLOUDY    68  66  93 VRB3      29.73S FOG
$$


USA.gov is the U.S. government's official web portal to all federal, state and local government web resources and services.